Location: Cheyres
(46.8153°N, 6.7877°E)
Time: 13:16:19
(UTC+00:00)

Cosmos 990 Rocket - Pass Details

Date: 26 September 2021
Orbit: 746 x 769 km, 74.0° (Epoch: 17 October)

Event Time Altitude Azimuth Distance (km) Brightness Sun altitude
Rises 20:08:40 0° 210° (SSW) 3,183 7.2 -28.1°
Reaches altitude 10° 20:11:03 10° 214° (SSW) 2,266 6.4 -28.4°
Enters shadow 20:11:31 13° 215° (SW) 2,089 6.3 -28.5°
Exits shadow 20:14:33 42° 234° (SW) 1,071 4.8 -28.9°
Maximum altitude 20:16:08 62° 295° (WNW) 848 4.3 -29.1°
Drops below altitude 10° 20:21:18 10° 16° (NNE) 2,297 6.6 -29.9°
Sets 20:23:43 0° 20° (NNE) 3,230 7.4 -30.2°
